• Join FlightAware (Why Join?)
  • Login
  • US Flag 
09:06AM EST


 

Airport Tracker/Info


-or-


 

Live Flight TrackerFlight Track Log ✈ GJS3649 ✈ 06-Jul-2013 ✈ KTUL - KORD

Flight Track Log - Related Links

Times and Time Zones

All times are in EDT time to prevent confusion due to time zone crossing. See the GJS3649 flight status page for this flight to view local times or setup timezone preferences in your user account.

Time Position Orientation Groundspeed Altitude Reporting Facility
EDT Latitude Longitude Course Direction KTS MPH feet Rate Location/Type
07:10AM 36.1864 -95.8825 61° Northeast 146 168 1,600  Level Kansas City Center
07:12AM 36.1533 -95.8403 134° Southeast 219 252 4,200 2,240 Climbing Kansas City Center
07:13AM 36.1986 -95.7467 59° Northeast 269 310 7,200 2,504 Climbing Kansas City Center
07:14AM 36.3316 -95.4739 61° Northeast  Level FlightAware Approximate
07:14AM 36.2414 -95.6628 58° Northeast 284 327 10,000  Level Kansas City Center
07:15AM 36.3773 -95.3733 60° Northeast  Level FlightAware Approximate
07:15AM 36.3072 -95.5831 44° Northeast 326 375 11,800  Level Kansas City Center
07:16AM 36.4295 -95.2585 61° Northeast  Level FlightAware Approximate
07:16AM 36.3742 -95.5017 44° Northeast 333 383 14,600  Level Kansas City Center
07:17AM 36.4467 -95.4089 46° Northeast 346 398 17,000 2,182 Climbing Kansas City Center
07:18AM 36.5197 -95.3197 44° Northeast 361 415 19,000 1,983 Climbing Kansas City Center
07:19AM 36.5939 -95.2272 45° Northeast 372 428 21,000 1,736 Climbing Kansas City Center
07:20AM 36.6744 -95.1264 45° Northeast 386 444 22,500 1,587 Climbing Kansas City Center
07:21AM 36.7519 -95.0297 45° Northeast 392 451 24,200 1,736 Climbing Kansas City Center
07:22AM 36.8303 -94.9319 45° Northeast 396 456 26,000 1,686 Climbing Kansas City Center
07:23AM 36.9069 -94.8347 45° Northeast 394 453 27,600 1,587 Climbing Kansas City Center
07:24AM 36.9844 -94.7389 45° Northeast 392 451 29,200 1,388 Climbing Kansas City Center
07:25AM 37.0619 -94.6406 45° Northeast 394 453 30,400 1,091 Climbing Kansas City Center
07:26AM 37.1403 -94.5397 46° Northeast 401 461 31,400 1,033 Climbing Kansas City Center
07:27AM 37.2206 -94.4375 45° Northeast 408 470 32,500 1,041 Climbing Kansas City Center
07:28AM 37.3025 -94.3325 46° Northeast 417 480 33,500 1,091 Climbing Kansas City Center
07:29AM 37.3836 -94.2289 45° Northeast 415 478 34,700 1,091 Climbing Kansas City Center
07:30AM 37.4642 -94.1256 45° Northeast 415 478 35,700 893 Climbing Kansas City Center
07:31AM 37.5392 -94.0275 46° Northeast 411 473 36,500 787 Climbing Kansas City Center
07:32AM 37.6192 -93.9244 46° Northeast 410 472 37,300 992 Climbing Kansas City Center
07:33AM 37.7136 -93.8014 46° Northeast 407 468 38,500 843 Climbing Kansas City Center
07:34AM 37.7925 -93.6983 46° Northeast 405 466 39,000 248 Climbing Kansas City Center
07:35AM 37.8703 -93.5956 46° Northeast 402 463 39,000  Level Kansas City Center
07:36AM 37.9494 -93.4919 46° Northeast 407 468 39,000  Level Kansas City Center
07:37AM 38.0275 -93.3886 46° Northeast 406 467 39,000  Level Kansas City Center
07:38AM 38.1047 -93.2858 46° Northeast 402 463 39,000  Level Kansas City Center
07:39AM 38.1819 -93.1819 47° Northeast 402 463 39,000  Level Kansas City Center
07:40AM 38.2600 -93.0797 46° Northeast 401 461 39,000  Level Kansas City Center
07:41AM 38.3383 -92.9753 46° Northeast 403 464 39,000  Level Kansas City Center
07:42AM 38.4147 -92.8719 47° Northeast 400 460 39,000  Level Kansas City Center
07:43AM 38.4933 -92.7669 46° Northeast 403 464 39,000  Level Kansas City Center
07:44AM 38.5706 -92.6617 47° Northeast 403 464 39,000  Level Kansas City Center
07:45AM 38.6489 -92.5572 46° Northeast 404 465 39,000  Level Kansas City Center
07:46AM 38.7267 -92.4500 47° Northeast 406 467 39,000  Level Kansas City Center
07:47AM 38.8050 -92.3422 47° Northeast 408 470 39,000  Level Kansas City Center
07:48AM 38.8844 -92.2344 47° Northeast 412 474 39,000  Level Kansas City Center
07:49AM 38.9628 -92.1253 47° Northeast 413 475 39,000  Level Kansas City Center
07:50AM 39.0422 -92.0153 47° Northeast 416 479 39,000  Level Kansas City Center
07:51AM 39.1211 -91.9067 47° Northeast 415 478 39,000  Level Kansas City Center
07:52AM 39.1992 -91.7983 47° Northeast 413 475 39,000  Level Kansas City Center
07:53AM 39.2756 -91.6928 47° Northeast 411 473 39,000  Level Kansas City Center
07:54AM 39.3494 -91.5908 47° Northeast 409 471 39,000  Level Kansas City Center
07:55AM 39.4250 -91.4842 47° Northeast 405 466 39,000 -344 Level Kansas City Center
07:56AM 39.4989 -91.3789 48° Northeast 401 461 38,300 -843 Descending Kansas City Center
07:57AM 39.5750 -91.2728 47° Northeast 400 460 37,300 -992 Descending Kansas City Center
07:58AM 39.6503 -91.1661 47° Northeast 400 460 36,300 -984 Descending Kansas City Center
07:59AM 39.7336 -91.0581 45° Northeast 411 473 35,300 -639 Descending Kansas City Center
08:00AM 39.8447 -90.9453 38° Northeast 439 505 35,000 -148 Descending Kansas City Center
08:01AM 39.9439 -90.8472 37° Northeast 447 514 35,000  Level Kansas City Center
08:02AM 40.0444 -90.7464 38° Northeast 451 519 35,000 -496 Level Kansas City Center
08:03AM 40.1444 -90.6403 39° Northeast 459 528 34,000 -984 Descending Kansas City Center
08:04AM 40.2525 -90.5347 37° Northeast 476 548 33,000 -492 Descending Kansas City Center
08:05AM 40.3572 -90.4236 39° Northeast 482 555 33,000 -148 Level Kansas City Center
08:06AM 40.4467 -90.2922 48° Northeast 484 557 32,700 -1,230 Descending Kansas City Center
08:07AM 40.5314 -90.1647 49° Northeast 487 560 30,500 -2,508 Descending Kansas City Center
08:08AM 40.6325 -90.0078 50° Northeast 476 548 27,600 -2,380 Descending Kansas City Center
08:09AM 40.6994 -89.9056 49° Northeast 470 541 25,700 -1,624 Descending Kansas City Center
08:11AM 40.8056 -89.7375 50° Northeast 464 534 24,000 -761 Descending Chicago Center
08:12AM 40.8839 -89.6161 49° Northeast 439 505 24,000 -98 Level Chicago Center
08:13AM 40.9686 -89.4833 50° Northeast 437 503 23,800 -780 Descending Chicago Center
08:14AM 41.0489 -89.3575 50° Northeast 451 519 22,400 -1,561 Descending Chicago Center
08:15AM 41.1297 -89.2306 50° Northeast 452 520 20,600 -2,311 Descending Chicago Center
08:16AM 41.2131 -89.0989 50° Northeast 428 493 17,700 -2,732 Descending Chicago Center
08:17AM 41.2811 -88.9878 51° Northeast 390 449 15,000 -2,585 Descending Chicago Center
08:18AM 41.3475 -88.8825 50° Northeast 374 430 12,400 -1,805 Descending Chicago Center
08:19AM 41.4111 -88.7794 51° Northeast 364 419 11,300 -683 Descending Chicago Center
08:20AM 41.4761 -88.6753 50° Northeast 367 422 11,000 -148 Descending Chicago Center
08:21AM 41.5408 -88.5703 51° Northeast 367 422 11,000 -49 Level Chicago Center
08:22AM 41.6181 -88.4447 51° Northeast 365 420 10,900 -488 Descending Chicago Center
08:23AM 41.6775 -88.3469 51° Northeast 339 390 10,000 -488 Descending Chicago Center
08:24AM 41.7308 -88.2592 51° Northeast 309 356 9,900 -732 Descending Chicago Center
08:25AM 41.7781 -88.1747 53° Northeast 289 333 8,500 -1,415 Descending Chicago Center
08:26AM 41.8408 -88.1153 35° Northeast 281 323 7,000 -732 Descending Chicago Center
08:27AM 41.9169 -88.1025 North 288 331 7,000 -98 Level Chicago Center
08:28AM 42.0000 -88.1167 353° North 300 345 6,800 -496 Descending Chicago TRACON
08:29AM 42.0667 -88.1667 331° Northwest 261 300 6,000 -750 Descending Chicago TRACON
08:30AM 42.1333 -88.1333 20° North 240 276 5,300 -1,421 Descending Chicago TRACON
08:31AM 42.1333 -88.0667 90° East 235 270 3,300 -1,211 Descending Chicago TRACON
08:32AM 42.0833 -88.0333 154° Southeast 195 224 3,000 -526 Descending Chicago TRACON
08:33AM 42.0500 -88.0000 143° Southeast 183 211 2,300 -895 Descending Chicago TRACON
08:34AM 42.0167 -87.9667 143° Southeast 135 155 1,300 -1,000 Descending Chicago TRACON
08:36AM 41.9817 -87.9067 37° Northeast  Level Estimated